| time (UTC) | temp C | wind direction | speed KPH | gust KPH | rain 1hr cm | rain 24hr cm | rain mn cm | humidity % | barometer mb |
| 20260505113847 | 14 | 225 | 0.0 | 0.0 | 0.00 | 0.00 | 0.00 | 82 | 1014.5 |
| 20260505113345 | 14 | 225 | 0.0 | 0.0 | 0.00 | 0.00 | 0.00 | 82 | 1014.5 |
| 20260505112843 | 14 | 225 | 0.0 | 0.0 | 0.00 | 0.00 | 0.00 | 84 | 1014.5 |
| 20260505112341 | 14 | 203 | 0.0 | 0.0 | 0.00 | 0.00 | 0.00 | 90 | 1014.2 |
| 20260505111840 | 12 | 203 | 0.0 | 0.0 | 0.00 | 0.00 | 0.00 | 91 | 1014.2 |
| 20260505111338 | 11 | 270 | 0.0 | 0.0 | 0.00 | 0.00 | 0.00 | 92 | 1014.5 |
| 20260505110836 | 10 | 270 | 0.0 | 0.0 | 0.00 | 0.00 | 0.00 | 91 | 1014.5 |
| 20260505110334 | 10 | 225 | 0.0 | 0.0 | 0.00 | 0.00 | 0.00 | 91 | 1014.5 |
| 20260505101819 | 11 | 225 | 0.0 | 0.0 | 0.00 | 0.00 | 0.00 | 89 | 1013.8 |
| 20260505101317 | 11 | 203 | 0.0 | 0.0 | 0.00 | 0.00 | 0.00 | 89 | 1014.2 |
| 20260505100816 | 11 | 270 | 0.0 | 0.0 | 0.00 | 0.00 | 0.00 | 89 | 1013.8 |
| 20260505100314 | 11 | 225 | 0.0 | 0.0 | 0.00 | 0.00 | 0.00 | 89 | 1014.2 |
| 20260505095812 | 11 | 248 | 0.0 | 0.0 | 0.00 | 0.00 | 0.00 | 88 | 1013.8 |
| 20260505095310 | 11 | 225 | 0.0 | 0.0 | 0.00 | 0.00 | 0.00 | 88 | 1013.8 |
| 20260505094809 | 11 | 203 | 0.0 | 0.0 | 0.00 | 0.00 | 0.00 | 87 | 1014.2 |
| 20260505094307 | 11 | 248 | 0.0 | 0.0 | 0.00 | 0.00 | 0.00 | 86 | 1013.8 |
| 20260505093806 | 11 | 248 | 0.0 | 0.0 | 0.00 | 0.00 | 0.00 | 85 | 1013.8 |
| 20260505093304 | 11 | 248 | 0.0 | 0.0 | 0.00 | 0.00 | 0.00 | 85 | 1013.8 |
| 20260505092802 | 12 | 225 | 0.0 | 0.0 | 0.00 | 0.00 | 0.00 | 84 | 1013.5 |
| 20260505092301 | 12 | 225 | 0.0 | 0.0 | 0.00 | 0.00 | 0.00 | 83 | 1013.8 |
| 20260505091759 | 12 | 225 | 0.0 | 0.0 | 0.00 | 0.00 | 0.00 | 83 | 1013.5 |
| 20260505091257 | 12 | 203 | 0.0 | 0.0 | 0.00 | 0.00 | 0.00 | 82 | 1013.5 |
| 20260505090755 | 12 | 248 | 0.0 | 0.0 | 0.00 | 0.00 | 0.00 | 82 | 1013.5 |
| 20260505090253 | 12 | 225 | 0.0 | 0.0 | 0.00 | 0.00 | 0.00 | 81 | 1013.5 |
| 20260505085752 | 13 | 203 | 0.0 | 0.0 | 0.00 | 0.00 | 0.00 | 81 | 1013.5 |
| 20260505085250 | 13 | 248 | 0.0 | 0.0 | 0.00 | 0.00 | 0.00 | 80 | 1013.5 |
| 20260505084748 | 13 | 203 | 0.0 | 0.0 | 0.00 | 0.00 | 0.00 | 80 | 1013.5 |
| 20260505084246 | 13 | 225 | 0.0 | 1.6 | 0.00 | 0.00 | 0.00 | 80 | 1013.5 |
| 20260505083745 | 13 | 225 | 0.0 | 0.0 | 0.00 | 0.00 | 0.00 | 79 | 1013.5 |
| 20260505083243 | 13 | 158 | 0.0 | 0.0 | 0.00 | 0.00 | 0.00 | 78 | 1013.2 |
| 20260505082741 | 13 | 248 | 3.2 | 9.7 | 0.00 | 0.00 | 0.00 | 78 | 1013.5 |
| 20260505082240 | 13 | 270 | 0.0 | 0.0 | 0.00 | 0.00 | 0.00 | 78 | 1012.8 |
| 20260505081738 | 13 | 203 | 1.6 | 3.2 | 0.00 | 0.00 | 0.00 | 77 | 1013.2 |
| 20260505081236 | 13 | 203 | 0.0 | 1.6 | 0.00 | 0.00 | 0.00 | 77 | 1013.2 |
| 20260505080735 | 13 | 248 | 3.2 | 3.2 | 0.00 | 0.00 | 0.00 | 77 | 1013.2 |
| 20260505080233 | 13 | 203 | 0.0 | 3.2 | 0.00 | 0.00 | 0.00 | 76 | 1013.2 |
| 20260505075731 | 13 | 225 | 0.0 | 3.2 | 0.00 | 0.00 | 0.00 | 76 | 1013.2 |
| 20260505075229 | 13 | 225 | 3.2 | 3.2 | 0.00 | 0.00 | 0.00 | 75 | 1013.2 |
| 20260505074727 | 13 | 248 | 0.0 | 3.2 | 0.00 | 0.00 | 0.00 | 75 | 1013.2 |
| 20260505074226 | 14 | 225 | 0.0 | 3.2 | 0.00 | 0.00 | 0.00 | 74 | 1013.2 |
| 20260505073724 | 14 | 180 | 0.0 | 0.0 | 0.00 | 0.00 | 0.00 | 74 | 1013.2 |
| 20260505073222 | 14 | 225 | 1.6 | 3.2 | 0.00 | 0.00 | 0.00 | 74 | 1013.5 |
| 20260505072720 | 14 | 248 | 0.0 | 0.0 | 0.00 | 0.00 | 0.00 | 73 | 1013.2 |
| 20260505072218 | 14 | 270 | 0.0 | 1.6 | 0.00 | 0.00 | 0.00 | 73 | 1013.2 |
| 20260505071717 | 14 | 248 | 0.0 | 1.6 | 0.00 | 0.00 | 0.00 | 72 | 1013.2 |
| 20260505071215 | 15 | 248 | 0.0 | 1.6 | 0.00 | 0.00 | 0.00 | 72 | 1013.2 |
| 20260505070713 | 15 | 270 | 0.0 | 1.6 | 0.00 | 0.00 | 0.00 | 71 | 1013.2 |
| 20260505070212 | 15 | 225 | 0.0 | 1.6 | 0.00 | 0.00 | 0.00 | 70 | 1012.8 |
| 20260505065710 | 15 | 203 | 4.8 | 8.0 | 0.00 | 0.00 | 0.00 | 70 | 1013.2 |
| 20260505065208 | 15 | 203 | 0.0 | 1.6 | 0.00 | 0.00 | 0.00 | 70 | 1012.8 |
| 20260505064706 | 15 | 203 | 0.0 | 0.0 | 0.00 | 0.00 | 0.00 | 69 | 1012.8 |
| 20260505064204 | 15 | 203 | 3.2 | 4.8 | 0.00 | 0.00 | 0.00 | 69 | 1013.2 |
| 20260505063703 | 15 | 248 | 0.0 | 1.6 | 0.00 | 0.00 | 0.00 | 68 | 1013.2 |
| 20260505063201 | 15 | 270 | 0.0 | 1.6 | 0.00 | 0.00 | 0.00 | 67 | 1013.2 |
| 20260505062700 | 15 | 248 | 3.2 | 6.4 | 0.00 | 0.00 | 0.00 | 67 | 1013.2 |
| 20260505062158 | 16 | 270 | 0.0 | 1.6 | 0.00 | 0.00 | 0.00 | 66 | 1013.5 |
| 20260505061656 | 16 | 225 | 1.6 | 4.8 | 0.00 | 0.00 | 0.00 | 66 | 1013.2 |
| 20260505061154 | 16 | 225 | 3.2 | 4.8 | 0.00 | 0.00 | 0.00 | 66 | 1013.2 |
| 20260505060652 | 16 | 248 | 0.0 | 1.6 | 0.00 | 0.00 | 0.00 | 65 | 1013.2 |
| 20260505060151 | 16 | 293 | 0.0 | 1.6 | 0.00 | 0.00 | 0.00 | 65 | 1013.2 |
| 20260505055649 | 16 | 225 | 0.0 | 0.0 | 0.00 | 0.00 | 0.00 | 64 | 1013.5 |
| 20260505055147 | 16 | 248 | 3.2 | 6.4 | 0.00 | 0.00 | 0.00 | 63 | 1013.2 |
| 20260505054645 | 16 | 248 | 6.4 | 9.7 | 0.00 | 0.00 | 0.00 | 63 | 1013.5 |
| 20260505054144 | 16 | 338 | 1.6 | 3.2 | 0.00 | 0.00 | 0.00 | 62 | 1013.2 |
| 20260505053642 | 16 | 270 | 1.6 | 4.8 | 0.00 | 0.00 | 0.00 | 62 | 1013.2 |
| 20260505053140 | 16 | 315 | 4.8 | 6.4 | 0.00 | 0.00 | 0.00 | 62 | 1013.2 |
| 20260505052639 | 16 | 180 | 3.2 | 4.8 | 0.00 | 0.00 | 0.00 | 61 | 1013.2 |
| 20260505052137 | 16 | 225 | 6.4 | 8.0 | 0.00 | 0.00 | 0.00 | 59 | 1013.5 |
| 20260505051636 | 16 | 225 | 6.4 | 8.0 | 0.00 | 0.00 | 0.00 | 59 | 1013.5 |
| 20260505051134 | 16 | 248 | 1.6 | 3.2 | 0.00 | 0.00 | 0.00 | 59 | 1013.5 |
| 20260505050632 | 16 | 248 | 4.8 | 4.8 | 0.00 | 0.00 | 0.00 | 58 | 1013.5 |
| 20260505050131 | 16 | 270 | 0.0 | 1.6 | 0.00 | 0.00 | 0.00 | 57 | 1013.5 |
| 20260505041616 | 17 | 203 | 0.0 | 1.6 | 0.00 | 0.00 | 0.00 | 53 | 1013.5 |
| 20260505041114 | 17 | 315 | 0.0 | 0.0 | 0.00 | 0.00 | 0.00 | 53 | 1013.5 |
| 20260505040612 | 17 | 203 | 0.0 | 0.0 | 0.00 | 0.00 | 0.00 | 52 | 1013.5 |
| 20260505040111 | 17 | 135 | 0.0 | 1.6 | 0.00 | 0.00 | 0.00 | 52 | 1013.5 |
| 20260505035609 | 17 | 248 | 0.0 | 1.6 | 0.00 | 0.00 | 0.00 | 52 | 1013.5 |
| 20260505035107 | 17 | 135 | 1.6 | 4.8 | 0.00 | 0.00 | 0.00 | 52 | 1013.5 |
| 20260505034605 | 17 | 203 | 0.0 | 1.6 | 0.00 | 0.00 | 0.00 | 52 | 1013.5 |
| 20260505034104 | 17 | 248 | 0.0 | 0.0 | 0.00 | 0.00 | 0.00 | 51 | 1013.2 |
| 20260505033602 | 17 | 225 | 0.0 | 1.6 | 0.00 | 0.00 | 0.00 | 51 | 1013.5 |
| 20260505033100 | 17 | 270 | 0.0 | 3.2 | 0.00 | 0.00 | 0.00 | 50 | 1013.5 |
| 20260505032559 | 17 | 203 | 1.6 | 3.2 | 0.00 | 0.00 | 0.00 | 50 | 1013.5 |
| 20260505032057 | 17 | 203 | 0.0 | 0.0 | 0.00 | 0.00 | 0.00 | 51 | 1013.5 |
| 20260505031555 | 17 | 203 | 0.0 | 0.0 | 0.00 | 0.00 | 0.00 | 50 | 1013.5 |
| 20260505031054 | 17 | 203 | 0.0 | 3.2 | 0.00 | 0.00 | 0.00 | 50 | 1013.2 |
| 20260505030552 | 17 | 225 | 1.6 | 3.2 | 0.00 | 0.00 | 0.00 | 50 | 1013.5 |
| 20260505030050 | 17 | 270 | 0.0 | 1.6 | 0.00 | 0.00 | 0.00 | 50 | 1013.5 |
| 20260505025548 | 17 | 248 | 0.0 | 3.2 | 0.00 | 0.00 | 0.00 | 49 | 1013.5 |
| 20260505025047 | 18 | 225 | 1.6 | 3.2 | 0.00 | 0.00 | 0.00 | 49 | 1013.5 |
| 20260505024545 | 17 | 248 | 0.0 | 1.6 | 0.00 | 0.00 | 0.00 | 50 | 1013.5 |
| 20260505024043 | 17 | 203 | 1.6 | 3.2 | 0.00 | 0.00 | 0.00 | 50 | 1013.5 |
| 20260505023542 | 17 | 248 | 0.0 | 0.0 | 0.00 | 0.00 | 0.00 | 51 | 1013.2 |
| 20260505023040 | 17 | 248 | 0.0 | 0.0 | 0.00 | 0.00 | 0.00 | 51 | 1013.5 |
| 20260505022538 | 17 | 270 | 0.0 | 1.6 | 0.00 | 0.00 | 0.00 | 52 | 1013.2 |
| 20260505022037 | 17 | 248 | 0.0 | 0.0 | 0.00 | 0.00 | 0.00 | 52 | 1013.2 |
| 20260505021535 | 17 | 225 | 0.0 | 0.0 | 0.00 | 0.00 | 0.00 | 52 | 1013.2 |
| 20260505021033 | 17 | 180 | 0.0 | 1.6 | 0.00 | 0.00 | 0.00 | 52 | 1013.2 |
| 20260505020531 | 16 | 270 | 0.0 | 0.0 | 0.00 | 0.00 | 0.00 | 55 | 1013.2 |
| 20260505020030 | 15 | 248 | 0.0 | 0.0 | 0.00 | 0.00 | 0.00 | 58 | 1013.5 |
| 20260505015528 | 16 | 90 | 0.0 | 0.0 | 0.00 | 0.00 | 0.00 | 56 | 1013.2 |
| 20260505015026 | 16 | 225 | 0.0 | 0.0 | 0.00 | 0.00 | 0.00 | 54 | 1012.8 |
| 20260505014524 | 16 | 225 | 0.0 | 0.0 | 0.00 | 0.00 | 0.00 | 54 | 1012.8 |
| 20260505014023 | 16 | 225 | 0.0 | 0.0 | 0.00 | 0.00 | 0.00 | 55 | 1013.2 |
| 20260505013521 | 16 | 203 | 0.0 | 0.0 | 0.00 | 0.00 | 0.00 | 54 | 1012.8 |
| 20260505013019 | 16 | 225 | 0.0 | 0.0 | 0.00 | 0.00 | 0.00 | 56 | 1012.8 |
| 20260505012518 | 15 | 23 | 0.0 | 0.0 | 0.00 | 0.00 | 0.00 | 56 | 1012.8 |
| 20260505012015 | 16 | 248 | 0.0 | 0.0 | 0.00 | 0.00 | 0.00 | 55 | 1012.8 |
| 20260505011514 | 16 | 248 | 0.0 | 0.0 | 0.00 | 0.00 | 0.00 | 54 | 1012.8 |
| 20260505011012 | 16 | 203 | 0.0 | 0.0 | 0.00 | 0.00 | 0.00 | 54 | 1012.5 |
| 20260505010510 | 17 | 225 | 0.0 | 0.0 | 0.00 | 0.00 | 0.00 | 53 | 1012.5 |
| 20260505010009 | 17 | 248 | 0.0 | 0.0 | 0.00 | 0.00 | 0.00 | 52 | 1012.5 |
| 20260505005507 | 17 | 248 | 0.0 | 0.0 | 0.00 | 0.00 | 0.00 | 49 | 1012.5 |
| 20260505005005 | 17 | 248 | 0.0 | 0.0 | 0.00 | 0.00 | 0.00 | 47 | 1012.5 |
| 20260505004503 | 18 | 203 | 0.0 | 0.0 | 0.00 | 0.00 | 0.00 | 46 | 1012.1 |
| 20260505004001 | 18 | 203 | 0.0 | 0.0 | 0.00 | 0.00 | 0.00 | 44 | 1012.1 |
| 20260505003459 | 19 | 248 | 0.0 | 0.0 | 0.00 | 0.00 | 0.00 | 42 | 1012.1 |
| 20260505002958 | 20 | 248 | 0.0 | 0.0 | 0.00 | 0.00 | 0.00 | 40 | 1012.1 |
| 20260505002456 | 20 | 248 | 0.0 | 0.0 | 0.00 | 0.00 | 0.00 | 40 | 1012.1 |
| 20260505001954 | 20 | 248 | 0.0 | 0.0 | 0.00 | 0.00 | 0.00 | 39 | 1012.1 |
| 20260505001452 | 21 | 248 | 0.0 | 0.0 | 0.00 | 0.00 | 0.00 | 39 | 1011.8 |
| 20260505000950 | 21 | 248 | 0.0 | 0.0 | 0.00 | 0.00 | 0.00 | 38 | 1012.1 |
| 20260505000449 | 21 | 180 | 1.6 | 3.2 | 0.00 | 0.00 | 0.00 | 37 | 1012.1 |
| 20260504235947 | 22 | 270 | 0.0 | 0.0 | 0.00 | 0.00 | 0.00 | 36 | 1012.1 |
| 20260504235445 | 22 | 270 | 0.0 | 0.0 | 0.00 | 0.00 | 0.00 | 36 | 1011.8 |
| 20260504234943 | 22 | 248 | 0.0 | 0.0 | 0.00 | 0.00 | 0.00 | 35 | 1011.8 |
| 20260504234442 | 22 | 248 | 0.0 | 1.6 | 0.00 | 0.00 | 0.00 | 35 | 1011.8 |
| 20260504233940 | 22 | 248 | 0.0 | 1.6 | 0.00 | 0.00 | 0.00 | 34 | 1011.8 |
| 20260504233438 | 23 | 225 | 3.2 | 4.8 | 0.00 | 0.00 | 0.00 | 34 | 1011.8 |
| 20260504232937 | 23 | 248 | 1.6 | 3.2 | 0.00 | 0.00 | 0.00 | 33 | 1011.8 |
| 20260504232435 | 23 | 270 | 0.0 | 1.6 | 0.00 | 0.00 | 0.00 | 33 | 1011.8 |
| 20260504231933 | 23 | 180 | 0.0 | 3.2 | 0.00 | 0.00 | 0.00 | 32 | 1011.8 |
| 20260504231432 | 23 | 203 | 1.6 | 4.8 | 0.00 | 0.00 | 0.00 | 31 | 1011.5 |
| 20260504230930 | 24 | 225 | 1.6 | 8.0 | 0.00 | 0.00 | 0.00 | 31 | 1011.8 |
| 20260504230429 | 24 | 203 | 1.6 | 3.2 | 0.00 | 0.00 | 0.00 | 30 | 1011.5 |
| 20260504225927 | 24 | 338 | 3.2 | 8.0 | 0.00 | 0.00 | 0.00 | 30 | 1011.8 |
| 20260504225425 | 25 | 225 | 3.2 | 3.2 | 0.00 | 0.00 | 0.00 | 30 | 1011.5 |
| 20260504224923 | 25 | 225 | 0.0 | 1.6 | 0.00 | 0.00 | 0.00 | 30 | 1011.5 |
| 20260504224421 | 25 | 270 | 0.0 | 3.2 | 0.00 | 0.00 | 0.00 | 30 | 1011.8 |
| 20260504223919 | 25 | 270 | 1.6 | 3.2 | 0.00 | 0.00 | 0.00 | 29 | 1011.5 |
| 20260504223418 | 25 | 225 | 1.6 | 3.2 | 0.00 | 0.00 | 0.00 | 29 | 1011.5 |
| 20260504222916 | 26 | 203 | 3.2 | 4.8 | 0.00 | 0.00 | 0.00 | 28 | 1011.5 |
| 20260504222414 | 26 | 248 | 0.0 | 0.0 | 0.00 | 0.00 | 0.00 | 27 | 1011.8 |
| 20260504221912 | 26 | 0 | 0.0 | 1.6 | 0.00 | 0.00 | 0.00 | 28 | 1011.8 |
| 20260504221411 | 26 | 180 | 1.6 | 3.2 | 0.00 | 0.00 | 0.00 | 27 | 1011.8 |
| 20260504220909 | 26 | 248 | 1.6 | 6.4 | 0.00 | 0.00 | 0.00 | 27 | 1011.8 |
| 20260504220407 | 26 | 248 | 4.8 | 6.4 | 0.00 | 0.00 | 0.00 | 27 | 1011.5 |
| 20260504215906 | 27 | 180 | 1.6 | 4.8 | 0.00 | 0.00 | 0.00 | 26 | 1011.5 |
| 20260504215404 | 26 | 270 | 1.6 | 3.2 | 0.00 | 0.00 | 0.00 | 26 | 1011.8 |
| 20260504214902 | 26 | 270 | 0.0 | 3.2 | 0.00 | 0.00 | 0.00 | 27 | 1011.5 |
| 20260504214400 | 27 | 203 | 8.0 | 11.3 | 0.00 | 0.00 | 0.00 | 26 | 1011.5 |
| 20260504213858 | 27 | 203 | 4.8 | 8.0 | 0.00 | 0.00 | 0.00 | 26 | 1011.8 |
| 20260504213356 | 26 | 225 | 0.0 | 0.0 | 0.00 | 0.00 | 0.00 | 27 | 1011.5 |
| 20260504212854 | 26 | 203 | 4.8 | 8.0 | 0.00 | 0.00 | 0.00 | 27 | 1011.8 |
| 20260504212353 | 27 | 225 | 0.0 | 1.6 | 0.00 | 0.00 | 0.00 | 26 | 1011.8 |
| 20260504211851 | 27 | 293 | 1.6 | 3.2 | 0.00 | 0.00 | 0.00 | 26 | 1011.8 |
| 20260504211349 | 27 | 203 | 1.6 | 3.2 | 0.00 | 0.00 | 0.00 | 27 | 1011.8 |
| 20260504210847 | 27 | 248 | 8.0 | 11.3 | 0.00 | 0.00 | 0.00 | 27 | 1011.8 |
| 20260504210346 | 27 | 248 | 8.0 | 11.3 | 0.00 | 0.00 | 0.00 | 27 | 1011.8 |
| 20260504205844 | 27 | 248 | 1.6 | 3.2 | 0.00 | 0.00 | 0.00 | 27 | 1011.8 |
| 20260504205342 | 27 | 293 | 1.6 | 3.2 | 0.00 | 0.00 | 0.00 | 27 | 1011.8 |
| 20260504204841 | 27 | 270 | 4.8 | 8.0 | 0.00 | 0.00 | 0.00 | 28 | 1011.8 |
| 20260504204339 | 28 | 270 | 1.6 | 4.8 | 0.00 | 0.00 | 0.00 | 26 | 1011.8 |
| 20260504203837 | 27 | 203 | 1.6 | 3.2 | 0.00 | 0.00 | 0.00 | 27 | 1012.1 |
| 20260504203335 | 28 | 248 | 0.0 | 1.6 | 0.00 | 0.00 | 0.00 | 25 | 1012.1 |
| 20260504202834 | 28 | 45 | 1.6 | 3.2 | 0.00 | 0.00 | 0.00 | 25 | 1011.8 |
| 20260504202330 | 28 | 293 | 0.0 | 0.0 | 0.00 | 0.00 | 0.00 | 25 | 1012.1 |
| 20260504201829 | 27 | 270 | 1.6 | 3.2 | 0.00 | 0.00 | 0.00 | 25 | 1012.5 |
| 20260504201327 | 27 | 293 | 0.0 | 0.0 | 0.00 | 0.00 | 0.00 | 27 | 1012.5 |
| 20260504200825 | 27 | 248 | 1.6 | 3.2 | 0.00 | 0.00 | 0.00 | 26 | 1012.5 |
| 20260504200323 | 27 | 113 | 1.6 | 3.2 | 0.00 | 0.00 | 0.00 | 26 | 1012.5 |
| 20260504195822 | 27 | 270 | 0.0 | 0.0 | 0.00 | 0.00 | 0.00 | 27 | 1012.5 |
| 20260504195320 | 28 | 248 | 4.8 | 8.0 | 0.00 | 0.00 | 0.00 | 25 | 1012.8 |
| 20260504194818 | 27 | 203 | 0.0 | 1.6 | 0.00 | 0.00 | 0.00 | 28 | 1012.5 |
| 20260504194317 | 27 | 248 | 0.0 | 1.6 | 0.00 | 0.00 | 0.00 | 27 | 1012.5 |
| 20260504193815 | 27 | 293 | 1.6 | 8.0 | 0.00 | 0.00 | 0.00 | 26 | 1012.8 |
| 20260504193313 | 28 | 225 | 0.0 | 1.6 | 0.00 | 0.00 | 0.00 | 29 | 1012.5 |
| 20260504192811 | 28 | 203 | 3.2 | 6.4 | 0.00 | 0.00 | 0.00 | 26 | 1012.8 |
| 20260504192309 | 28 | 248 | 0.0 | 0.0 | 0.00 | 0.00 | 0.00 | 27 | 1012.8 |
| 20260504191808 | 27 | 248 | 4.8 | 8.0 | 0.00 | 0.00 | 0.00 | 25 | 1012.8 |
| 20260504191306 | 26 | 225 | 4.8 | 8.0 | 0.00 | 0.00 | 0.00 | 28 | 1012.8 |
| 20260504190805 | 27 | 248 | 0.0 | 1.6 | 0.00 | 0.00 | 0.00 | 29 | 1013.2 |
| 20260504190303 | 26 | 248 | 4.8 | 9.7 | 0.00 | 0.00 | 0.00 | 31 | 1013.2 |
| 20260504185801 | 26 | 293 | 9.7 | 12.9 | 0.00 | 0.00 | 0.00 | 30 | 1012.8 |
| 20260504185259 | 27 | 135 | 0.0 | 1.6 | 0.00 | 0.00 | 0.00 | 29 | 1013.2 |
| 20260504184758 | 27 | 225 | 4.8 | 8.0 | 0.00 | 0.00 | 0.00 | 30 | 1013.2 |
| 20260504184256 | 26 | 68 | 0.0 | 1.6 | 0.00 | 0.00 | 0.00 | 31 | 1013.2 |
| 20260504183755 | 27 | 293 | 6.4 | 8.0 | 0.00 | 0.00 | 0.00 | 29 | 1013.2 |
| 20260504183253 | 27 | 90 | 1.6 | 3.2 | 0.00 | 0.00 | 0.00 | 30 | 1013.2 |
| 20260504182751 | 27 | 90 | 0.0 | 0.0 | 0.00 | 0.00 | 0.00 | 31 | 1013.2 |
| 20260504182249 | 26 | 248 | 0.0 | 1.6 | 0.00 | 0.00 | 0.00 | 31 | 1013.5 |
| 20260504181747 | 26 | 293 | 0.0 | 1.6 | 0.00 | 0.00 | 0.00 | 34 | 1013.5 |
| 20260504181246 | 26 | 248 | 3.2 | 3.2 | 0.00 | 0.00 | 0.00 | 32 | 1013.5 |
| 20260504180744 | 26 | 225 | 1.6 | 8.0 | 0.00 | 0.00 | 0.00 | 31 | 1013.8 |
| 20260504180242 | 26 | 248 | 1.6 | 3.2 | 0.00 | 0.00 | 0.00 | 32 | 1013.8 |
| 20260504175741 | 26 | 180 | 0.0 | 3.2 | 0.00 | 0.00 | 0.00 | 33 | 1013.5 |
| 20260504175239 | 25 | 338 | 0.0 | 0.0 | 0.00 | 0.00 | 0.00 | 33 | 1013.8 |
| 20260504174737 | 27 | 45 | 0.0 | 3.2 | 0.00 | 0.00 | 0.00 | 32 | 1013.8 |
| 20260504174236 | 25 | 68 | 0.0 | 0.0 | 0.00 | 0.00 | 0.00 | 36 | 1013.5 |
| 20260504173734 | 25 | 23 | 6.4 | 8.0 | 0.00 | 0.00 | 0.00 | 33 | 1013.8 |
| 20260504173233 | 26 | 68 | 0.0 | 0.0 | 0.00 | 0.00 | 0.00 | 34 | 1013.8 |
| 20260504172731 | 26 | 158 | 3.2 | 6.4 | 0.00 | 0.00 | 0.00 | 34 | 1013.8 |
| 20260504172229 | 26 | 203 | 3.2 | 4.8 | 0.00 | 0.00 | 0.00 | 33 | 1013.8 |
| 20260504171727 | 27 | 293 | 0.0 | 0.0 | 0.00 | 0.00 | 0.00 | 30 | 1013.8 |
| 20260504171226 | 26 | 113 | 0.0 | 0.0 | 0.00 | 0.00 | 0.00 | 31 | 1014.2 |
| 20260504170724 | 26 | 338 | 0.0 | 0.0 | 0.00 | 0.00 | 0.00 | 31 | 1013.8 |
| 20260504170222 | 26 | 203 | 3.2 | 4.8 | 0.00 | 0.00 | 0.00 | 29 | 1014.2 |
| 20260504160202 | 23 | 23 | 6.4 | 8.0 | 0.00 | 0.00 | 0.00 | 34 | 1015.5 |
| 20260504151145 | 23 | 270 | 0.0 | 0.0 | 0.00 | 0.00 | 0.00 | 41 | 1015.5 |
| 20260504150643 | 22 | 225 | 0.0 | 0.0 | 0.00 | 0.00 | 0.00 | 44 | 1015.5 |
| 20260504150141 | 23 | 90 | 0.0 | 0.0 | 0.00 | 0.00 | 0.00 | 42 | 1015.5 |
| 20260504141124 | 20 | 0 | 1.6 | 3.2 | 0.00 | 0.00 | 0.00 | 49 | 1015.5 |
| 20260504140622 | 20 | 23 | 0.0 | 0.0 | 0.00 | 0.00 | 0.00 | 51 | 1015.5 |
| 20260504140120 | 20 | 45 | 0.0 | 0.0 | 0.00 | 0.00 | 0.00 | 51 | 1015.2 |
| 20260504130601 | 16 | 338 | 0.0 | 0.0 | 0.00 | 0.00 | 0.00 | 65 | 1015.2 |